Location: ?????????
(41.2286°N, 23.0068°E)
Time: 07:52:35
(UTC+00:00)

Cosmos 1023 Rocket - Pass Details

Date: 08 November 2025
Orbit: 732 x 766 km, 74.1° (Epoch: 04 December)

Event Time Altitude Azimuth Distance (km) Brightness Sun altitude
Exits shadow 03:18:42 16° 340° (NNW) 1,863 6.3 -20.7°
Maximum altitude 03:22:48 86° 252° (WSW) 740 4.3 -20.0°
Drops below altitude 10° 03:27:50 10° 164° (SSE) 2,225 7.2 -19.0°
Sets 03:30:10 0° 164° (SSE) 3,144 8.0 -18.6°
